Weather reports worldwide

Advertisment
San Luis Obispo, ca, United States of America (2072989): temperature & dewpoint: 13.09.2019 11:00:00 - 19.09.2019 11:00:00 (PDT)San Luis Obispo, ca, United States of America (2072989): wind speed & gusts: 13.09.2019 11:00:00 - 19.09.2019 11:00:00 (PDT)San Luis Obispo, ca, United States of America (2072989): wind direction: 13.09.2019 11:00:00 - 19.09.2019 11:00:00 (PDT)San Luis Obispo, ca, United States of America (2072989): reduced air pressure: 13.09.2019 11:00:00 - 19.09.2019 11:00:00 (PDT)San Luis Obispo, ca, United States of America (2072989): visibility: 13.09.2019 11:00:00 - 19.09.2019 11:00:00 (PDT)San Luis Obispo, ca, United States of America (2072989): precipitation: 13.09.2019 11:00:00 - 19.09.2019 11:00:00 (PDT)
Date & Time tt [°C] td [°C] ff [km/h] ff [kn] fx [km/h] fx [kn] dd ppp [hPa] vv [km] rr [mm]
19.09.2019 11:00:00 23,3 8,3 22 12 - - NNW 1013,2 16 -
19.09.2019 10:00:00 22,2 9,4 21 11 - - NW 1013,5 16 -
19.09.2019 09:00:00 19,4 10,0 16 9 - - N 1013,5 16 -
19.09.2019 08:00:00 14,4 12,2 16 9 - - NW 1013,3 16 -
19.09.2019 07:00:00 13,3 12,8 8 4 - - WNW 1013,1 0,8 -
19.09.2019 06:00:00 12,2 11,1 0 0 - - N 1012,8 16 -
19.09.2019 05:00:00 14,4 12,2 0 0 - - N 1012,3 16 -
19.09.2019 04:00:00 15,0 12,8 0 0 - - N 1012,4 16 -
19.09.2019 03:00:00 15,6 13,3 8 4 - - WNW 1012,5 16 -
19.09.2019 02:00:00 15,6 13,9 5 3 - - W 1012,7 16 -
19.09.2019 01:00:00 15,6 13,9 8 4 - - WNW 1012,8 16 -
19.09.2019 00:00:00 16,7 14,4 11 6 - - NW 1012,9 16 -
18.09.2019 23:00:00 17,2 15,0 8 4 - - W 1013,0 16 -
18.09.2019 22:00:00 17,2 15,0 8 4 - - NW 1013,0 16 -
18.09.2019 21:00:00 17,8 15,6 13 7 - - NW 1012,8 16 -
18.09.2019 20:00:00 17,8 15,6 16 9 - - WNW 1012,5 16 -
18.09.2019 19:00:00 18,9 15,0 18 10 - - WNW 1012,6 16 -
18.09.2019 18:00:00 20,6 15,0 22 12 - - WNW 1012,6 16 -
18.09.2019 17:00:00 22,2 14,4 35 19 - - NW 1012,7 16 -
18.09.2019 16:00:00 22,8 13,3 35 19 - - NW 1012,6 16 -
18.09.2019 15:00:00 24,4 10,6 31 17 - - NW 1012,8 16 -
18.09.2019 14:00:00 26,1 10,0 34 18 - - NW 1012,6 16 -
18.09.2019 13:00:00 26,1 10,0 24 13 - - WNW 1012,9 16 -
18.09.2019 12:00:00 27,2 6,7 11 6 - - WNW 1013,3 16 -
18.09.2019 11:00:00 25,0 8,3 8 4 - - WNW 1013,9 16 -
18.09.2019 10:00:00 21,7 9,4 0 0 - - N 1014,2 16 -
18.09.2019 09:00:00 18,3 10,6 0 0 - - N 1014,2 16 -
18.09.2019 08:00:00 13,9 10,0 0 0 - - N 1014,2 16 -
18.09.2019 07:00:00 10,6 7,8 5 3 - - SSE 1013,3 16 -
18.09.2019 06:00:00 11,7 8,3 5 3 - - ESE 1012,7 16 -
18.09.2019 05:00:00 12,8 9,4 8 4 - - SW 1012,5 16 -
18.09.2019 04:00:00 13,3 10,0 9 5 - - WNW 1012,7 16 -
18.09.2019 03:00:00 12,8 8,3 5 3 - - SE 1013,0 16 -
18.09.2019 02:00:00 12,8 8,9 5 3 - - ESE 1013,2 16 -
18.09.2019 01:00:00 13,3 9,4 9 5 - - SE 1012,7 16 -
18.09.2019 00:00:00 13,3 10,0 8 4 - - SE 1013,2 16 -
17.09.2019 23:00:00 14,4 10,6 0 0 - - N 1013,4 16 -
17.09.2019 22:00:00 15,6 10,6 9 5 - - WNW 1013,5 16 -
17.09.2019 21:00:00 16,1 11,1 15 8 - - NW 1013,6 16 -
17.09.2019 20:00:00 16,1 11,1 24 13 - - NNW 1013,0 16 -
17.09.2019 19:00:00 17,2 10,6 29 16 - - NW 1013,3 16 -
17.09.2019 18:00:00 20,0 10,0 34 18 48 26 NW 1013,2 16 -
17.09.2019 17:00:00 21,7 7,8 39 21 55 30 NW 1013,5 16 -
17.09.2019 16:00:00 23,3 6,7 39 21 55 30 NW 1013,5 16 -
17.09.2019 15:00:00 25,0 7,8 41 22 52 28 NW 1014,0 16 -
17.09.2019 14:00:00 24,4 9,4 35 19 52 28 NW 1014,6 16 0,0
17.09.2019 13:00:00 28,9 7,2 9 5 - - - 1014,8 16 -
17.09.2019 12:00:00 26,7 8,9 9 5 - - SSW 1015,4 16 -
17.09.2019 11:00:00 25,0 8,9 9 5 - - - 1016,2 16 -
17.09.2019 10:00:00 22,8 8,9 9 5 - - WNW 1016,6 16 -
17.09.2019 09:00:00 20,6 8,9 15 8 - - NNW 1016,5 16 -
17.09.2019 08:00:00 18,3 8,9 5 3 - - - 1015,9 16 -
17.09.2019 07:00:00 16,1 8,9 5 3 - - W 1015,4 16 -
17.09.2019 06:00:00 16,7 8,3 15 8 - - NW 1014,9 16 -
17.09.2019 05:00:00 17,2 8,3 18 10 - - NW 1014,5 16 -
17.09.2019 04:00:00 18,3 7,8 24 13 - - NNW 1014,4 16 -
17.09.2019 03:00:00 18,3 8,3 16 9 - - NNW 1014,5 16 -
17.09.2019 02:00:00 15,6 10,0 15 8 - - WNW 1014,2 16 -
17.09.2019 01:00:00 12,8 11,1 0 0 - - N 1014,1 16 -
17.09.2019 00:00:00 13,9 12,2 0 0 - - N 1014,1 16 -
16.09.2019 23:00:00 14,4 12,8 0 0 - - N 1013,9 16 -
16.09.2019 22:00:00 15,0 12,8 11 6 - - NW 1014,1 16 -
16.09.2019 21:00:00 15,6 13,3 15 8 - - NW 1013,9 16 -
16.09.2019 20:00:00 16,1 13,3 16 9 - - NW 1013,7 16 -
16.09.2019 19:00:00 17,2 13,3 22 12 - - WNW 1013,4 16 -
16.09.2019 18:00:00 18,9 13,3 26 14 - - NW 1013,3 16 -
16.09.2019 17:00:00 20,6 14,4 29 16 - - WNW 1013,2 16 -
16.09.2019 16:00:00 22,2 15,6 18 10 - - NW 1013,4 16 -
16.09.2019 15:00:00 23,3 15,6 22 12 - - NW 1013,6 16 -
16.09.2019 14:00:00 25,6 15,6 26 14 - - NW 1013,7 16 -
16.09.2019 13:00:00 25,6 15,0 26 14 - - NW 1013,9 16 -
16.09.2019 12:00:00 23,9 13,9 18 10 - - W 1014,1 16 -
16.09.2019 11:00:00 21,1 11,7 0 0 - - N 1014,6 16 -
16.09.2019 10:00:00 18,9 11,7 5 3 - - - 1014,9 16 -
16.09.2019 09:00:00 16,1 11,7 8 4 - - S 1014,5 16 -
16.09.2019 08:00:00 14,4 11,7 8 4 - - SE 1014,7 16 -
16.09.2019 07:00:00 13,9 11,1 11 6 - - ESE 1013,5 16 -
16.09.2019 06:00:00 14,4 11,7 9 5 - - SE 1013,0 16 -
16.09.2019 05:00:00 14,4 11,7 9 5 - - SSE 1012,5 16 -
16.09.2019 04:00:00 13,9 12,2 0 0 - - N 1012,5 16 -
16.09.2019 03:00:00 13,9 12,2 0 0 - - N 1012,6 16 -
16.09.2019 02:00:00 14,4 12,2 11 6 - - ESE 1012,3 16 -
16.09.2019 01:00:00 15,0 12,2 5 3 - - ESE 1012,6 16 -
16.09.2019 00:00:00 15,0 12,8 8 4 - - ENE 1012,7 16 -
15.09.2019 23:00:00 15,6 12,8 5 3 - - NNW 1012,7 16 -
15.09.2019 22:00:00 15,0 12,8 5 3 - - N 1012,9 16 -
15.09.2019 21:00:00 14,4 12,8 9 5 - - - 1012,9 16 -
15.09.2019 20:00:00 15,0 12,2 5 3 - - SSE 1012,0 16 -
15.09.2019 19:00:00 17,2 12,8 11 6 - - SE 1011,4 16 -
15.09.2019 18:00:00 20,0 12,2 13 7 - - ESE 1011,2 16 -
15.09.2019 17:00:00 21,7 12,2 13 7 - - S 1011,0 16 -
15.09.2019 16:00:00 23,9 12,2 11 6 - - SE 1010,9 16 -
15.09.2019 15:00:00 22,8 12,2 13 7 - - SSE 1011,5 16 -
15.09.2019 14:00:00 23,9 12,2 11 6 - - SSE 1012,0 16 -
15.09.2019 13:00:00 23,9 13,3 9 5 - - - 1012,2 16 -
15.09.2019 12:00:00 20,6 12,8 5 3 - - N 1012,8 16 -
15.09.2019 11:00:00 18,9 12,8 0 0 - - N 1013,3 16 -
15.09.2019 10:00:00 15,6 12,8 0 0 - - N 1013,2 16 -
15.09.2019 09:00:00 13,3 12,2 0 0 - - N 1013,0 10 -
15.09.2019 08:00:00 12,8 12,2 5 3 - - SE 1012,7 0,8 -
15.09.2019 07:00:00 12,2 12,2 0 0 - - N 1012,1 0,4 -
15.09.2019 06:00:00 12,2 12,2 0 0 - - N 1012,1 0,8 -
15.09.2019 05:00:00 12,2 11,7 0 0 - - N 1011,8 2,8 -
15.09.2019 04:00:00 12,2 11,7 5 3 - - WSW 1011,4 4,8 -
15.09.2019 03:00:00 13,3 11,1 5 3 - - ESE 1011,5 16 -
15.09.2019 02:00:00 13,9 11,7 0 0 - - N 1011,6 16 -
15.09.2019 01:00:00 14,4 11,1 5 3 - - E 1011,6 16 -
15.09.2019 00:00:00 15,0 12,2 9 5 - - ESE 1011,4 16 -
14.09.2019 23:00:00 15,0 12,8 0 0 - - N 1011,8 11 -
14.09.2019 22:00:00 16,7 12,8 0 0 - - N 1012,0 16 -
14.09.2019 21:00:00 17,2 13,3 8 4 - - SE 1012,0 16 -
14.09.2019 20:00:00 18,3 13,3 8 4 - - S 1011,5 16 -
14.09.2019 19:00:00 21,1 13,3 8 4 - - NW 1011,3 16 -
14.09.2019 18:00:00 23,3 12,8 15 8 - - W 1011,0 16 -
14.09.2019 17:00:00 28,9 10,0 26 14 - - NW 1010,8 16 -
14.09.2019 16:00:00 31,7 7,2 21 11 - - NW 1010,9 16 -
14.09.2019 15:00:00 31,7 7,2 24 13 - - WNW 1011,2 16 -
14.09.2019 14:00:00 32,2 8,9 24 13 - - WNW 1011,7 16 -
14.09.2019 13:00:00 33,3 7,8 13 7 - - WNW 1011,8 16 -
14.09.2019 12:00:00 35,6 5,6 13 7 - - WNW 1012,0 16 -
14.09.2019 11:00:00 33,3 7,8 8 4 - - W 1012,5 16 -
14.09.2019 10:00:00 30,0 8,3 0 0 - - N 1012,6 16 -
14.09.2019 09:00:00 26,7 8,3 5 3 - - ESE 1012,4 16 -
14.09.2019 08:00:00 21,1 7,8 5 3 - - ESE 1012,3 16 -
14.09.2019 07:00:00 16,1 7,8 0 0 - - N 1012,0 16 -
14.09.2019 06:00:00 15,6 7,2 0 0 - - N 1011,7 16 -
14.09.2019 05:00:00 15,6 7,2 0 0 - - N 1011,5 16 -
14.09.2019 04:00:00 15,6 7,2 0 0 - - N 1011,7 16 -
14.09.2019 03:00:00 16,7 7,2 0 0 - - N 1012,1 16 -
14.09.2019 02:00:00 16,7 7,8 0 0 - - N 1012,7 16 -
14.09.2019 01:00:00 17,2 7,8 0 0 - - N 1012,9 16 -
14.09.2019 00:00:00 18,3 8,3 0 0 - - N 1012,7 16 -
13.09.2019 23:00:00 18,9 9,4 0 0 - - N 1012,9 16 -
13.09.2019 22:00:00 20,6 9,4 5 3 - - SE 1012,8 16 -
13.09.2019 21:00:00 22,2 10,0 8 4 - - ESE 1012,8 16 0,0
13.09.2019 20:00:00 25,0 6,7 0 0 - - N 1012,5 16 -
13.09.2019 19:00:00 28,3 5,6 13 7 - - NW 1012,0 16 -
13.09.2019 18:00:00 30,0 5,0 16 9 - - NW 1012,0 16 -
13.09.2019 17:00:00 32,2 6,1 26 14 - - NW 1011,9 16 -
13.09.2019 16:00:00 32,8 8,3 24 13 - - NW 1012,2 16 -
13.09.2019 15:00:00 32,2 8,9 22 12 - - WNW 1012,3 16 -
13.09.2019 14:00:00 32,8 11,1 24 13 - - NW 1012,7 16 -
13.09.2019 13:00:00 32,8 10,0 28 15 - - WNW 1013,1 16 -
13.09.2019 12:00:00 36,7 7,8 5 3 - - - 1013,3 16 -
13.09.2019 11:00:00 33,9 6,7 0 0 - - N 1013,8 16 -

tt = temperature
td = dewpoint
ff = wind speed
fx = gusts
dd = wind direction
ppp = reduced air pressure
vv = visibility
rr = precipitation

Next stations